Tracking 19795 objects as of 19-Jul-2019
HD Live streaming from Space Station
objects crossing your sky now

ARIANE 2 DEB

Track ARIANE 2 DEB now!


NORAD ID: 33568
Int'l Code: 1989-006BL
Perigee: 473.8 km
Apogee: 35,373.1 km
Inclination: 8.0 °
Period: 628.1 minutes
Semi major axis: 24294 km
RCS: 0.1575 m2 (medium)
Launch date: January 27, 1989
Source: France (FR)
Launch site: FRENCH GUIANA (FRGUI)

Note: This is SATELLITE DEBRIS
aabbcc
Your satellite tracking list
Your tracking list is empty




NASA's NSSDC Master Catalog

Two Line Element Set (TLE):
1 33568U 89006BL  19198.27791375 -.00000095 +00000-0 +15684-3 0  9999
2 33568 007.9810 262.4484 7182554 103.2584 339.1871 02.29267420058152
Source of the keplerian elements: AFSPC